Location: Campillo
(40.8621°N, 4.2488°W)
Time: 04:29:01
(UTC+00:00)

Cosmos 2084 - Pass Details

Date: 29 September 2021
Orbit: 529 x 652 km, 62.8° (Epoch: 19 October)

Event Time Altitude Azimuth Distance (km) Brightness Sun altitude
Exits shadow 03:43:35 33° 97° (E) 922 4.8 -28.2°
Drops below altitude 10° 03:46:38 10° 52° (NE) 1,807 6.9 -27.6°
Sets 03:48:59 0° 44° (NE) 2,720 7.9 -27.2°
